Starlink 4526

operational
NORAD ID: 53438 Int'l Des: 2022-097 Owner: SPXS Country: US Constellation: starlink
LEOCIRCULAR

About Starlink 4526

Description loading...

Live Position

Loading 3D Globe...

Upcoming Passes

Altitude History

Altitude vs Time

uPlot chart will show altitude changes over time

Two-Line Element Set

1 53438U 22097BC 25303.29484345 -.00000553 00000-0 -16674-4 0 9998
2 53438 53.2178 329.1276 0001507 95.1354 264.9810 15.08836755179118
Epoch: Oct 30, 2025 • Age: 21 hours

Current Status

Altitude 543.3 km
Velocity 7.60 km/s
Sub-Earth Point 43.95°N, 4.45°W
Launch Date Aug 10, 2022
Age 3.2 years
Type internet

Technical Details

Classification Payload
Mass 297.00 kg
Dry Mass 275.00 kg
Total Mass 297.00 kg
Length 0.20 m
Diameter 2.80 m
Span 9.00 m
Shape Box + pan
Manufacturer SPXS
Bus Type Starlink
Phase Status In Orbit
Owner/State SPXS/US

Large Constellations

Loading constellations...